Flag Weather past 2 weeks in Santa Cruz, Bolivia

Now
72 °F

Mostly cloudy.


Feels Like: 71 °F
Forecast: 65 / 70 °F
Wind: 7 mph from South

Location: Viru-Viru

Current Time: Nov 23, 2014 at 12:05:57 AM

Latest Report: Nov 22, 2014 at 11:00 PM


Visibility: N/A

Pressure: 29.95 "Hg

Humidity: 83%

Dew point: 66 °F

Location of Santa CruzLocation

Historic Weather in Santa Cruz — Graph

°F

Santa Cruz temperature yesterday

Maximum temperature yesterday: 84 °F (at 3:00 PM)
Minimum temperature yesterday: 72 °F (at 10:00 PM)
Average temperature yesterday: 76 °F

Past Weeks' High & Low Weather Summary

 TemperatureHumidityPressure
High97 °F (Nov 17, 3:00 PM)100% (Nov 8, 9:00 AM)30.07 "Hg (Nov 8, 9:00 AM)
Low63 °F (Nov 15, 4:00 AM)19% (Nov 16, 4:00 PM)29.59 "Hg (Nov 19, 4:00 PM)
Average78 °F69%29.85 "Hg
* Reported Nov 7 11:00 PM — Nov 22 11:00 PM, Santa Cruz, Weather by CustomWeather, © 2014

Note: Actual official high and low records may vary slightly from our data, if they occured in-between our weather recording intervals... More about our weather records

Advertising

Santa Cruz weather history for previous 24 hours

 ConditionsComfort  
Time TempWeatherWind HumidityBarometerVisibility
11:00 PM
Nov 22
72 °FMostly cloudy.7 mph83%29.95 "HgN/A
10:00 PM72 °FMostly cloudy.8 mph83%29.95 "HgN/A
9:00 PM73 °FMostly cloudy.10 mph78%29.92 "HgN/A
8:00 PM73 °FMostly cloudy.12 mph78%29.89 "HgN/A
7:00 PM73 °FPartly cloudy.16 mph78%29.86 "HgN/A
6:00 PM75 °FPartly sunny.14 mph74%29.86 "HgN/A
5:00 PM75 °FBroken clouds.16 mph74%29.83 "HgN/A
4:00 PM79 °FPartly sunny.16 mph70%29.83 "HgN/A
3:00 PM84 °FBroken clouds.16 mph58%29.83 "HgN/A
2:00 PM81 °FBroken clouds.15 mph70%29.86 "HgN/A
1:00 PM79 °FBroken clouds.14 mph74%29.89 "HgN/A
12:00 PM81 °FBroken clouds.14 mph79%29.92 "HgN/A
11:00 AM79 °FScattered showers. Broken clouds.12 mph89%29.92 "Hg5 mi
10:00 AM73 °FScattered showers. Cloudy.8 mph100%29.95 "Hg4 mi
9:00 AM75 °FScattered showers. Mostly cloudy.3 mph100%29.92 "Hg5 mi
8:00 AM75 °FMostly cloudy.3 mph100%29.92 "HgN/A
7:00 AM75 °FMostly cloudy.5 mph94%29.89 "HgN/A
6:00 AM73 °FPartly sunny.8 mph100%29.86 "HgN/A
5:00 AM73 °FPartly cloudy.6 mph100%29.83 "HgN/A
4:00 AM73 °FPartly cloudy.3 mph100%29.83 "HgN/A
3:00 AM73 °FPartly cloudy.2 mph100%29.83 "HgN/A
2:00 AM75 °FPartly cloudy.5 mph94%29.83 "HgN/A
1:00 AM75 °FLight rain. Passing clouds.2 mph100%29.86 "Hg6 mi
12:00 AM75 °FLight rain. Passing clouds.2 mph100%29.86 "Hg5 mi
Weather by CustomWeather, © 2014

See weather overviewHow to use our weather pages